Showing default

ICEYE-X4, 44390

Orbit data source: Space-Track

ICEYE-X4, 44390 is a payload satellite owned by ICEYE (FI) in SSO that was launched on Fri, 05 Jul 2019 UTC via a SOYUZ-2-1B launch vehicle from the Vostochny Cosmodrome (VOSTO). Payload-class satellites include a variety of spacecraft equipped with specific instruments for various scientific and technological missions. These include communications satellites like Starlink; space stations such as the ISS; scientific satellites like the Hubble; Earth observation satellites from companies like Planet Labs, Umbra, and HawkEye 360; GPS; miniature CubeSats for education and research; and military/defense satellites.

Loading next visibility...
Identifier
44390, 2019-038D
Orbit
SSO
Last TLE update
4 hours ago
Origin
Manufacturer
ICEYE
Mission
Operational Commercial Radar Imaging
Bus & Motor
ICEYE, Unknown motor
Mass
80 kg wet, 80 kg dry
Launch date (UTC)
2019-07-05 (6 years ago)
Launch vehicle
SOYUZ-2-1B
Launch site
Vostochny Cosmodrome (VOSTO)
Object type
Payload
Rocket body
Debris
Shape & HBR
Box + 1 Pan, 3.25 m
Radar Cross Section
1.837 m², Medium (>0.1 m² and < 1m²)

Expand to show TLE details & history

TLE from 4 hours ago
0 ICEYE-X4
1 44390U 19038D   25129.22643343  .00012405  00000-0  58814-3 0  9998
2 44390  97.9028 135.8362 0014637 267.6092  92.3465 15.19358391320276
Epoch: 2025-05-09T05:26Z
Definitive object data (Epoch: 2025-05-09T05:26:03.848Z)
Latitude
-0.00007°
Longitude
-172.96544°
Altitude
511.281 km
Speed
7.608 km/s
True Right ascension
09h 03m 20s
True Declination
0° 00' 00"
Sunlit
Object was in daylight at TLE epoch
Visualization TLE readout
Latitude
21.40777°
Longitude
10.30515°
Altitude
513.748 km
Speed
7.607 km/s
Apparent Right ascension
00h 26m 28s
Apparent Declination
-15° 40' 09"
Sunlit
Object is in daylight
Visualization observer readout
Local Sidereal Time
17:26:49
Azimuth
92.961° ESE
Elevation
-21.308°
Doppler factor
1
Orbital elements
Apogee altitude
514.842 km
Perigee altitude
494.693 km
Semi-major axis
6,882.904 km
Eccentricity
0.0014637
Inclination
97.9028°
RAAN
135.8362°
Arg. of periapsis
267.6092°
True anomaly
92.51407°
Mean anomaly
92.3465°
Eccentric anomaly
92.43029°
Mean motion
3.80089 °/min
BSTAR
0.00058814
Orbital period
94.71 mins
Loading maneuver chart data...
Loading SW <> Apogee altitude chart data...

ICEYE-X4 Visibility forecast

Observer location: undefined°, undefined°

Span
Click to sort rows by Start time (UTC) header in descending order
Start Az.
Max El. time (UTC)
Max El. Az.
Max El.
End time (UTC)
End Az.
4 mins2025-05-09 12:20:30.943Z56.913° ENE2025-05-09 12:22:30.943Z90.649° ESE15.36°2025-05-09 12:24:30.943Z126.397° SE
5 mins2025-05-09 13:54:30.943Z339.129° N2025-05-09 13:56:30.943Z291.121° WNW27.059°2025-05-09 13:59:30.943Z229.156° WSW
5 mins2025-05-10 00:32:30.943Z175.933° S2025-05-10 00:34:30.943Z235.916° WSW43.728°2025-05-10 00:37:30.943Z342.156° N
|